Location: Agua Amarilla
(10.0342°N, 66.8490°W)
Time: 21:58:57
(UTC+00:00)

Cosmos 2278 Rocket - Pass Details

Date: 26 June 2022
Orbit: 842 x 844 km, 71.0° (Epoch: 14 August)

Event Time Altitude Azimuth Distance (km) Brightness Sun altitude
Rises 23:05:23 0° 358° (N) 3,388 5.7 -3.9°
Reaches altitude 10° 23:08:00 10° 6° (N) 2,453 4.9 -4.5°
Maximum altitude 23:13:09 37° 73° (ENE) 1,290 2.8 -5.7°
Drops below altitude 10° 23:18:18 10° 139° (SE) 2,453 4.0 -6.8°
Enters shadow 23:19:45 - 144° (SE) 2,964 4.5 -7.1°
